Regional Weather Roundup
Issued by NWS Sioux Falls, SD

Home | Current Version | Previous Version | Text Only | Print | Product List | Glossary On
Versions: 1 2 3 4 5 6 7 8 9 10 11 12 13 14 15 16 17 18 19 20 21 22 23 24 25 26 27 28 29 30 31 32 33 34 35 36 37 38 39 40 41 42 43 44 45 46 47 48 49 50
000
ASUS43 KFSD 240802
RWRFSD

WEATHER ROUNDUP FOR SE SOUTH DAKOTA/SW MINNESOTA/NW IOWA
NATIONAL WEATHER SERVICE SIOUX FALLS SD
300 AM CDT MON APR 24 2017

NOTE: "FAIR" INDICATES FEW OR NO CLOUDS BELOW 12,000 FEET WITH NO
SIGNIFICANT WEATHER AND OR OBSTRUCTIONS TO VISIBILITY.


SDZ038>040-050-052>070-240900-
SOUTHEAST SOUTH DAKOTA

CITY           SKY/WX    TMP DP  RH WIND       PRES   REMARKS
BROOKINGS      MOCLDY    54  33  45 S21G31    29.70
CHAMBERLAIN    CLOUDY    60  36  39 SE18G28   29.57F
HURON          CLOUDY    55  36  48 SE12      29.61F
MADISON        FAIR      50  32  50 S18G26    29.70F
MITCHELL       CLOUDY    56  36  47 S16       29.64F
SIOUX FALLS    MOCLDY    55  35  47 S17       29.73F
WINNER         FAIR      59  33  37 S21       29.56F
YANKTON        CLOUDY    57  32  38 S18G25    29.71F
$$

MNZ071-072-080-081-089-090-097-098-240900-
SOUTHWEST MINNESOTA

CITY           SKY/WX    TMP DP  RH WIND       PRES   REMARKS
FAIRMONT       CLOUDY    49  35  58 S13       29.83F
JACKSON        CLOUDY    50  32  50 S12       29.81F
LUVERNE        PTCLDY    46  32  57 S6        29.76F
MARSHALL       MOCLDY    57  32  38 S22       29.71F
MONTEVIDEO     CLOUDY    48  36  61 S7        29.73F
PIPESTONE      MOCLDY    50  30  46 S14       29.74F
REDWOOD FALLS  CLOUDY    52  33  48 S13       29.75F
TRACY          PTCLDY    56  33  41 S13G21    29.75F
WINDOM         CLOUDY    54  30  40 S13G20    29.79F
WORTHINGTON    PTCLDY    52  32  46 S16       29.78F
$$

IAZ001>003-012>014-020>022-031-032-NEZ013-014-SDZ071-240900-
NORTHWEST IOWA

CITY           SKY/WX    TMP DP  RH WIND       PRES   REMARKS
CHEROKEE       MOCLDY    49  35  58 S8        29.82F
DENISON        CLOUDY    52  34  50 S13       29.85F
ESTHERVILLE    CLOUDY    46  35  65 S9        29.82F
LE MARS        CLOUDY    54  34  47 S12G18    29.79F
ORANGE CITY    CLOUDY    50  36  57 S8        29.79F
SHELDON        PTCLDY    50  34  53 S14       29.78F
SIOUX CITY     MOCLDY    49  36  61 SE12      29.79F
SPENCER        CLOUDY    50  34  54 MISG      29.81F
STORM LAKE     CLOUDY    46  34  61 S10       29.84S
$$

ABBREVIATIONS USED IN REMARKS
   TC - TEMPERATURE IN CELSIUS
  WCI - WIND CHILL INDEX
   HX - HEAT INDEX
  VSB - VISIBILITY





USA.gov is the U.S. government's official web portal to all federal, state and local government web resources and services.